HTR127 EDDH-EVRA

Flight info

Callsign HTR127
Flight time 1h 20m
Altitude 33000
Route LUGEG3G LUGEG P605 MEGAR DCT KOSEB DCT NINTA DCT ADAXA DCT ORVIX
Aircraft A306/H-SDE3FGHIRWYZ/LB1

Departure

Time 2026-05-01 09:15
Airport Hamburg Helmut Schmidt Airport (EDDH)

Arrival

Time 2026-05-01 10:35
Airport Riga International Airport (EVRA)
Time Latitude Longitude Altitude Speed Heading
2026-05-01 08:51 53.62770 9.99169 48 ft 0 kts 63°
2026-05-01 09:06 53.62767 9.99158 50 ft 3 kts 63°
2026-05-01 09:07 53.62758 9.99129 47 ft 3 kts 63°
2026-05-01 09:07 53.62749 9.99101 46 ft 3 kts 63°
2026-05-01 09:07 53.62740 9.99073 47 ft 3 kts 73°
2026-05-01 09:07 53.62737 9.99042 45 ft 3 kts 107°
2026-05-01 09:08 53.62744 9.99013 48 ft 3 kts 126°
2026-05-01 09:08 53.62752 9.98996 46 ft 0 kts 152°
2026-05-01 09:10 53.62746 9.99002 50 ft 3 kts 151°
2026-05-01 09:11 53.62703 9.99041 49 ft 9 kts 152°
2026-05-01 09:11 53.62651 9.99092 49 ft 8 kts 149°
2026-05-01 09:11 53.62601 9.99144 51 ft 10 kts 142°
2026-05-01 09:11 53.62585 9.99284 48 ft 14 kts 79°
2026-05-01 09:12 53.62601 9.99434 51 ft 12 kts 79°
2026-05-01 09:12 53.62617 9.99572 50 ft 13 kts 79°
2026-05-01 09:12 53.62634 9.99730 53 ft 12 kts 79°
2026-05-01 09:12 53.62668 9.99851 49 ft 12 kts 43°
2026-05-01 09:13 53.62736 9.99860 46 ft 5 kts 332°
2026-05-01 09:13 53.62743 9.99854 48 ft 0 kts 332°
2026-05-01 09:14 53.62892 9.99722 48 ft 59 kts 332°
2026-05-01 09:14 53.63463 9.99229 49 ft 123 kts 333°
2026-05-01 09:14 53.64398 9.98429 62 ft 177 kts 333°
2026-05-01 09:14 53.65575 9.97417 580 ft 199 kts 333°
2026-05-01 09:15 53.66833 9.96303 1518 ft 209 kts 331°
2026-05-01 09:15 53.68147 9.95149 2350 ft 217 kts 334°
2026-05-01 09:15 53.69661 9.94459 2875 ft 236 kts 356°
2026-05-01 09:15 53.71375 9.94503 3466 ft 255 kts
2026-05-01 09:16 53.73104 9.95217 4288 ft 259 kts 28°
2026-05-01 09:16 53.74453 9.97235 4852 ft 267 kts 58°
2026-05-01 09:16 53.75306 10.00093 5455 ft 274 kts 69°
2026-05-01 09:17 53.76824 10.05897 7449 ft 269 kts 68°
2026-05-01 09:17 53.77617 10.08777 8330 ft 271 kts 67°
2026-05-01 09:17 53.79257 10.14593 10090 ft 276 kts 67°
2026-05-01 09:18 53.80099 10.17541 10794 ft 284 kts 66°
2026-05-01 09:18 53.81925 10.23950 11388 ft 321 kts 66°
2026-05-01 09:19 53.83966 10.31106 11952 ft 353 kts 66°
2026-05-01 09:19 53.85054 10.34921 12229 ft 367 kts 66°
2026-05-01 09:19 53.86178 10.38870 12605 ft 377 kts 66°
2026-05-01 09:20 53.88481 10.46958 13686 ft 385 kts 66°
2026-05-01 09:20 53.90819 10.55215 14807 ft 391 kts 66°
2026-05-01 09:21 53.93184 10.63574 15900 ft 396 kts 65°
2026-05-01 09:21 53.94620 10.67594 16418 ft 402 kts 55°
2026-05-01 09:21 53.98282 10.74860 17439 ft 409 kts 48°
2026-05-01 09:22 54.02284 10.81921 18423 ft 415 kts 47°
2026-05-01 09:22 54.06311 10.89074 19256 ft 421 kts 47°
2026-05-01 09:23 54.08296 10.92665 19659 ft 423 kts 47°
2026-05-01 09:23 54.12326 11.00046 20463 ft 427 kts 48°
2026-05-01 09:24 54.16371 11.07542 21240 ft 432 kts 48°
2026-05-01 09:24 54.18406 11.11330 21626 ft 434 kts 48°
2026-05-01 09:24 54.22504 11.18970 22377 ft 438 kts 48°
2026-05-01 09:25 54.25960 11.25440 23030 ft 440 kts 48°
2026-05-01 09:25 54.30096 11.33205 23719 ft 444 kts 49°
2026-05-01 09:26 54.32185 11.37136 24049 ft 446 kts 49°
2026-05-01 09:26 54.36375 11.45038 24580 ft 450 kts 49°
2026-05-01 09:26 54.38483 11.49017 24841 ft 452 kts 49°
2026-05-01 09:27 54.42728 11.57034 25353 ft 455 kts 49°
2026-05-01 09:27 54.44855 11.61066 25599 ft 456 kts 49°
2026-05-01 09:27 54.46817 11.65363 25823 ft 458 kts 56°
2026-05-01 09:28 54.48535 11.69983 26058 ft 459 kts 59°
2026-05-01 09:28 54.50180 11.74692 26301 ft 461 kts 60°
2026-05-01 09:28 54.51791 11.79474 26506 ft 462 kts 60°
2026-05-01 09:28 54.53378 11.84275 26744 ft 463 kts 61°
2026-05-01 09:29 54.56557 11.93966 27258 ft 464 kts 60°
2026-05-01 09:29 54.58146 11.98808 27539 ft 464 kts 60°
2026-05-01 09:30 54.61321 12.08472 28132 ft 462 kts 60°
2026-05-01 09:30 54.62904 12.13293 28442 ft 461 kts 60°
2026-05-01 09:30 54.66058 12.22921 29003 ft 461 kts 60°
2026-05-01 09:31 54.67635 12.27749 29267 ft 461 kts 60°
2026-05-01 09:31 54.69208 12.32576 29552 ft 461 kts 60°
2026-05-01 09:31 54.72339 12.42214 30180 ft 459 kts 60°
2026-05-01 09:32 54.73898 12.47027 30482 ft 458 kts 60°
2026-05-01 09:32 54.77003 12.56643 31009 ft 456 kts 60°
2026-05-01 09:32 54.78521 12.61446 31359 ft 454 kts 62°
2026-05-01 09:33 54.79966 12.66305 31620 ft 453 kts 63°
2026-05-01 09:33 54.81368 12.71195 31872 ft 453 kts 63°
2026-05-01 09:33 54.84128 12.80995 32381 ft 451 kts 63°
2026-05-01 09:34 54.85503 12.85879 32610 ft 451 kts 63°
2026-05-01 09:34 54.86887 12.90777 32817 ft 452 kts 63°
2026-05-01 09:34 54.89657 13.00565 33337 ft 451 kts 63°
2026-05-01 09:35 54.93792 13.15212 33423 ft 449 kts 63°
2026-05-01 09:36 54.96531 13.24966 33417 ft 448 kts 63°
2026-05-01 09:36 54.99256 13.34714 33416 ft 448 kts 63°
2026-05-01 09:37 55.01973 13.44473 33414 ft 448 kts 63°
2026-05-01 09:37 55.06031 13.59131 33411 ft 448 kts 63°
2026-05-01 09:38 55.10075 13.73826 33409 ft 448 kts 63°
2026-05-01 09:39 55.14103 13.88563 33407 ft 448 kts 63°
2026-05-01 09:39 55.16774 13.98385 33397 ft 447 kts 63°
2026-05-01 09:40 55.20779 14.13196 33398 ft 447 kts 63°
2026-05-01 09:41 55.23410 14.22974 33397 ft 447 kts 63°
2026-05-01 09:41 55.27384 14.37827 33391 ft 447 kts 64°
2026-05-01 09:42 55.30013 14.47707 33391 ft 447 kts 64°
2026-05-01 09:43 55.35235 14.67463 33388 ft 445 kts 64°
2026-05-01 09:43 55.37831 14.77349 33385 ft 445 kts 64°
2026-05-01 09:44 55.41709 14.92194 33379 ft 446 kts 64°
2026-05-01 09:45 55.44289 15.02126 33376 ft 446 kts 64°
2026-05-01 09:45 55.48145 15.17055 33369 ft 446 kts 64°
2026-05-01 09:46 55.50700 15.27004 33382 ft 445 kts 64°
2026-05-01 09:46 55.53242 15.36945 33379 ft 444 kts 64°
2026-05-01 09:47 55.55778 15.46903 33356 ft 444 kts 64°
2026-05-01 09:47 55.58302 15.56859 33378 ft 444 kts 64°
2026-05-01 09:48 55.60820 15.66840 33358 ft 444 kts 64°
2026-05-01 09:48 55.63329 15.76827 33353 ft 444 kts 64°
2026-05-01 09:49 55.65830 15.86829 33370 ft 444 kts 64°
2026-05-01 09:49 55.68318 15.96827 33359 ft 442 kts 64°
2026-05-01 09:50 55.70790 16.06802 33352 ft 442 kts 64°
2026-05-01 09:50 55.73255 16.16795 33351 ft 442 kts 64°
2026-05-01 09:51 55.75711 16.26797 33352 ft 442 kts 64°
2026-05-01 09:51 55.78159 16.36810 33347 ft 442 kts 64°
2026-05-01 09:52 55.80599 16.46837 33347 ft 442 kts 64°
2026-05-01 09:52 55.83029 16.56873 33342 ft 442 kts 64°
2026-05-01 09:53 55.85454 16.66931 33342 ft 442 kts 64°
2026-05-01 09:53 55.87871 16.77004 33341 ft 442 kts 64°
2026-05-01 09:54 55.90280 16.87090 33336 ft 442 kts 64°
2026-05-01 09:54 55.92679 16.97181 33335 ft 442 kts 64°
2026-05-01 09:55 55.95073 17.07298 33335 ft 443 kts 64°
2026-05-01 09:55 55.97460 17.17433 33330 ft 443 kts 64°
2026-05-01 09:56 55.99836 17.27570 33338 ft 442 kts 64°
2026-05-01 09:56 56.02200 17.37705 33332 ft 440 kts 64°
2026-05-01 09:57 56.04546 17.47808 33332 ft 440 kts 64°
2026-05-01 09:57 56.06887 17.57937 33328 ft 440 kts 64°
2026-05-01 09:58 56.09219 17.68074 33332 ft 440 kts 64°
2026-05-01 09:58 56.11541 17.78218 33325 ft 441 kts 64°
2026-05-01 09:59 56.13861 17.88401 33330 ft 442 kts 64°
2026-05-01 09:59 56.16177 17.98617 33336 ft 441 kts 64°
2026-05-01 10:00 56.18478 18.08818 33328 ft 440 kts 64°
2026-05-01 10:00 56.20761 18.18988 33334 ft 440 kts 64°
2026-05-01 10:01 56.22871 18.29328 33325 ft 444 kts 71°
2026-05-01 10:01 56.24258 18.40165 33327 ft 445 kts 73°
2026-05-01 10:02 56.25294 18.49224 33330 ft 446 kts 74°
2026-05-01 10:02 56.26507 18.60167 33327 ft 446 kts 74°
2026-05-01 10:03 56.27721 18.71138 33330 ft 446 kts 74°
2026-05-01 10:03 56.28930 18.82074 33327 ft 445 kts 74°
2026-05-01 10:04 56.30430 18.92819 33330 ft 441 kts 68°
2026-05-01 10:04 56.32330 19.03312 33326 ft 440 kts 66°
2026-05-01 10:05 56.34302 19.13766 33325 ft 440 kts 66°
2026-05-01 10:05 56.36277 19.24211 33325 ft 440 kts 66°
2026-05-01 10:06 56.38240 19.34688 33333 ft 440 kts 66°
2026-05-01 10:06 56.40180 19.45132 33318 ft 439 kts 66°
2026-05-01 10:07 56.42111 19.55591 33322 ft 440 kts 66°
2026-05-01 10:07 56.44038 19.66082 33323 ft 440 kts 66°
2026-05-01 10:08 56.46912 19.81846 33319 ft 440 kts 67°
2026-05-01 10:09 56.48816 19.92360 33316 ft 440 kts 67°
2026-05-01 10:09 56.50711 20.02886 33316 ft 440 kts 67°
2026-05-01 10:10 56.52594 20.13409 33315 ft 438 kts 67°
2026-05-01 10:10 56.55391 20.29146 33318 ft 438 kts 67°
2026-05-01 10:11 56.57249 20.39667 33316 ft 439 kts 67°
2026-05-01 10:11 56.59101 20.50220 33313 ft 439 kts 67°
2026-05-01 10:12 56.60943 20.60780 33316 ft 439 kts 67°
2026-05-01 10:12 56.62789 20.71426 32956 ft 439 kts 67°
2026-05-01 10:13 56.63699 20.76698 32448 ft 434 kts 67°
2026-05-01 10:13 56.64591 20.81901 31929 ft 429 kts 67°
2026-05-01 10:13 56.65458 20.86969 31430 ft 423 kts 67°
2026-05-01 10:14 56.67200 20.97166 30436 ft 419 kts 67°
2026-05-01 10:14 56.68066 21.02238 29876 ft 421 kts 68°
2026-05-01 10:14 56.68934 21.07336 29320 ft 423 kts 67°
2026-05-01 10:14 56.69803 21.12458 28763 ft 425 kts 67°
2026-05-01 10:15 56.70673 21.17603 28246 ft 427 kts 68°
2026-05-01 10:15 56.71545 21.22779 27700 ft 429 kts 68°
2026-05-01 10:15 56.72419 21.27987 27184 ft 430 kts 68°
2026-05-01 10:15 56.73291 21.33200 26711 ft 432 kts 68°
2026-05-01 10:16 56.74165 21.38448 26259 ft 433 kts 68°
2026-05-01 10:16 56.75039 21.43706 25817 ft 435 kts 68°
2026-05-01 10:16 56.76688 21.54325 24963 ft 437 kts 72°
2026-05-01 10:17 56.77044 21.59843 24525 ft 441 kts 81°
2026-05-01 10:17 56.77043 21.70999 23656 ft 436 kts 84°
2026-05-01 10:17 56.76981 21.76466 23152 ft 429 kts 84°
2026-05-01 10:18 56.76845 21.87231 22183 ft 421 kts 84°
2026-05-01 10:18 56.76773 21.92543 21713 ft 418 kts 84°
2026-05-01 10:18 56.76700 21.97830 21246 ft 416 kts 85°
2026-05-01 10:19 56.76624 22.03087 20793 ft 414 kts 85°
2026-05-01 10:19 56.76548 22.08304 20341 ft 411 kts 85°
2026-05-01 10:19 56.76467 22.13513 19921 ft 409 kts 85°
2026-05-01 10:20 56.76301 22.23792 19053 ft 403 kts 85°
2026-05-01 10:20 56.76215 22.28887 18631 ft 401 kts 85°
2026-05-01 10:20 56.76129 22.33950 18146 ft 399 kts 85°
2026-05-01 10:20 56.76041 22.38978 17668 ft 394 kts 85°
2026-05-01 10:21 56.75951 22.43928 17184 ft 387 kts 85°
2026-05-01 10:21 56.75771 22.53552 16250 ft 374 kts 85°
2026-05-01 10:21 56.75682 22.58249 15793 ft 368 kts 85°
2026-05-01 10:22 56.75502 22.67426 14901 ft 358 kts 86°
2026-05-01 10:22 56.75321 22.76367 13982 ft 346 kts 86°
2026-05-01 10:23 56.75229 22.80690 13444 ft 337 kts 86°
2026-05-01 10:23 56.75049 22.89053 12409 ft 325 kts 86°
2026-05-01 10:23 56.74962 22.93161 11940 ft 324 kts 86°
2026-05-01 10:24 56.74783 23.01297 11048 ft 319 kts 87°
2026-05-01 10:24 56.74599 23.09139 10208 ft 299 kts 87°
2026-05-01 10:25 56.74425 23.16622 9422 ft 293 kts 87°
2026-05-01 10:25 56.74251 23.24000 8641 ft 290 kts 88°
2026-05-01 10:26 56.74161 23.27654 8270 ft 288 kts 88°
2026-05-01 10:26 56.74071 23.31300 7884 ft 287 kts 88°
2026-05-01 10:26 56.73886 23.38526 7150 ft 284 kts 88°
2026-05-01 10:27 56.73700 23.45692 6398 ft 282 kts 88°
2026-05-01 10:27 56.73512 23.52777 5639 ft 279 kts 89°
2026-05-01 10:28 56.73418 23.56299 5324 ft 276 kts 89°
2026-05-01 10:28 56.73227 23.63151 4788 ft 266 kts 89°
2026-05-01 10:28 56.73134 23.66473 4535 ft 262 kts 89°
2026-05-01 10:29 56.72950 23.73033 4015 ft 256 kts 90°
2026-05-01 10:29 56.72839 23.76256 3763 ft 254 kts 91°
2026-05-01 10:30 56.72540 23.82615 3255 ft 251 kts 92°
2026-05-01 10:30 56.72243 23.88802 2794 ft 235 kts 91°
2026-05-01 10:31 56.73688 23.93264 2484 ft 203 kts 25°
2026-05-01 10:31 56.76257 23.94519 2508 ft 189 kts
2026-05-01 10:32 56.78794 23.94885 2439 ft 180 kts
2026-05-01 10:32 56.80035 23.95098 2187 ft 178 kts
2026-05-01 10:32 56.82438 23.95497 1719 ft 162 kts
2026-05-01 10:33 56.84483 23.95822 1292 ft 137 kts
2026-05-01 10:33 56.86394 23.96140 916 ft 138 kts
2026-05-01 10:34 56.87355 23.96300 731 ft 139 kts
2026-05-01 10:34 56.88328 23.96465 540 ft 141 kts
2026-05-01 10:34 56.89310 23.96614 332 ft 140 kts
2026-05-01 10:35 56.91197 23.96929 49 ft 126 kts
2026-05-01 10:35 56.91932 23.97049 46 ft 83 kts
2026-05-01 10:35 56.92372 23.97123 47 ft 53 kts
2026-05-01 10:35 56.92706 23.97181 52 ft 42 kts
2026-05-01 10:36 56.92965 23.97347 49 ft 13 kts 90°
2026-05-01 10:36 56.92956 23.97498 51 ft 11 kts 95°
2026-05-01 10:36 56.92949 23.97636 52 ft 10 kts 95°
2026-05-01 10:37 56.92945 23.97761 52 ft 9 kts 93°
2026-05-01 10:37 56.92963 23.97909 48 ft 3 kts 15°
2026-05-01 10:37 56.92983 23.97912 52 ft 2 kts
2026-05-01 10:38 56.92997 23.97915 47 ft 2 kts
2026-05-01 10:38 56.93014 23.97918 51 ft 2 kts
2026-05-01 10:38 56.93023 23.97919 50 ft 1 kts
2026-05-01 10:38 56.93026 23.97920 51 ft 0 kts